01-03-2023, 00:00:00,      0,    0.3,    2.4,   0.00,   0.00, 1028.0,    0.0, -999.0
01-03-2023, 00:00:10,      0,    0.1,    2.3,   0.00,   0.00, 1027.9,    0.1, -999.0
01-03-2023, 00:00:20,      0,    0.0,    2.3,   0.00,   0.00, 1027.9,    0.0, -999.0
01-03-2023, 00:00:30,      0,    0.0,    2.3,   0.00,   0.00, 1027.9,    0.4, -999.0
01-03-2023, 00:00:40,      0,    0.1,    2.3,   0.00,   0.00, 1027.9,    0.0, -999.0
01-03-2023, 00:00:50,      0,    0.1,    2.3,   0.00,   0.00, 1027.9,    0.2, -999.0
01-03-2023, 00:01:00,      0,    0.0,    2.3,   0.00,   0.00, 1027.9,    0.0, -999.0
01-03-2023, 00:01:10,      0,    0.0,    2.3,   0.00,   0.00, 1027.8,    0.0, -999.0
01-03-2023, 00:01:20,      0,    0.0,    2.3,   0.00,   0.00, 1027.9,    0.1, -999.0
01-03-2023, 00:01:30,      0,    0.0,    2.4,   0.00,   0.00, 1027.9,    0.0, -999.0
01-03-2023, 00:01:40,      0,    0.0,    2.4,   0.00,   0.00, 1027.9,    0.0, -999.0
01-03-2023, 00:01:50,      0,    0.0,    2.3,   0.00,   0.00, 1027.9,    0.1, -999.0
01-03-2023, 00:02:00,     43,    0.4,    2.4,   0.00,   0.00, 1028.0,    0.1, -999.0
01-03-2023, 00:02:10,     43,    0.1,    2.4,   0.00,   0.00, 1028.0,    0.2, -999.0
01-03-2023, 00:02:20,     43,    0.0,    2.2,   0.00,   0.00, 1027.9,    0.0, -999.0
01-03-2023, 00:02:30,     43,    0.0,    2.3,   0.00,   0.00, 1027.9,    0.1, -999.0
01-03-2023, 00:02:39,     42,    0.0,    2.3,   0.00,   0.00, 1027.9,    0.1, -999.0
01-03-2023, 00:02:50,     43,    0.0,    2.2,   0.00,   0.00, 1027.9,    0.0, -999.0
01-03-2023, 00:03:00,     42,    0.0,    2.3,   0.00,   0.00, 1027.9,    0.0, -999.0
01-03-2023, 00:03:10,     43,    0.1,    2.4,   0.00,   0.00, 1028.0,    0.1, -999.0
01-03-2023, 00:03:19,     43,    0.6,    2.4,   0.00,   0.00, 1028.0,    0.1, -999.0
01-03-2023, 00:03:30,     43,    0.9,    2.5,   0.00,   0.00, 1028.0,    0.1, -999.0
01-03-2023, 00:03:40,     24,    1.0,    2.4,   0.00,   0.00, 1028.0,    0.0, -999.0
01-03-2023, 00:03:49,     25,    0.6,    2.4,   0.00,   0.00, 1028.1,    0.0, -999.0
01-03-2023, 00:04:00,      0,    1.1,    2.4,   0.00,   0.00, 1028.1,    0.0, -999.0
01-03-2023, 00:04:10,     18,    0.8,    2.3,   0.00,   0.00, 1028.0,    0.0, -999.0
01-03-2023, 00:04:20,      5,    0.1,    2.3,   0.00,   0.00, 1027.9,    0.0, -999.0
01-03-2023, 00:04:29,      5,    0.2,    2.3,   0.00,   0.00, 1028.0,    0.1, -999.0
01-03-2023, 00:04:40,      4,    0.0,    2.3,   0.00,   0.00, 1027.9,    0.1, -999.0
01-03-2023, 00:04:50,      4,    0.0,    2.3,   0.00,   0.00, 1027.9,    0.0, -999.0
01-03-2023, 00:04:59,      4,    0.0,    2.2,   0.00,   0.00, 1027.9,    0.1, -999.0
01-03-2023, 00:05:09,      5,    0.0,    2.3,   0.00,   0.00, 1027.9,    0.0, -999.0
01-03-2023, 00:05:20,      5,    0.0,    2.3,   0.00,   0.00, 1027.9,    0.1, -999.0
01-03-2023, 00:05:30,      5,    0.0,    2.3,   0.00,   0.00, 1027.9,    0.0, -999.0
01-03-2023, 00:05:39,      5,    0.0,    2.3,   0.00,   0.00, 1027.9,    0.0, -999.0
01-03-2023, 00:05:49,      5,    0.0,    2.3,   0.00,   0.00, 1027.9,    0.1, -999.0
01-03-2023, 00:06:00,      3,    0.0,    2.3,   0.00,   0.00, 1027.9,    0.0, -999.0
01-03-2023, 00:06:09,      3,    0.0,    2.3,   0.00,   0.00, 1027.9,    0.1, -999.0
01-03-2023, 00:06:19,      3,    0.0,    2.3,   0.00,   0.00, 1027.9,    0.0, -999.0
01-03-2023, 00:06:29,      3,    0.0,    2.3,   0.00,   0.00, 1027.9,    0.0, -999.0
01-03-2023, 00:06:40,     36,    1.1,    2.4,   0.00,   0.00, 1028.0,    0.0, -999.0
01-03-2023, 00:06:49,     39,    0.6,    2.4,   0.00,   0.00, 1028.0,    0.0, -999.0
01-03-2023, 00:06:59,     39,    0.0,    2.3,   0.00,   0.00, 1027.9,    0.0, -999.0
01-03-2023, 00:07:09,     39,    0.0,    2.3,   0.00,   0.00, 1027.9,    0.1, -999.0
01-03-2023, 00:07:19,     39,    0.0,    2.3,   0.00,   0.00, 1027.9,    0.1, -999.0
01-03-2023, 00:07:29,     39,    0.0,    2.3,   0.00,   0.00, 1027.9,    0.0, -999.0
01-03-2023, 00:07:39,     35,    0.1,    2.3,   0.00,   0.00, 1028.0,    0.0, -999.0
01-03-2023, 00:07:49,     35,    0.1,    2.3,   0.00,   0.00, 1027.9,    0.1, -999.0
01-03-2023, 00:07:59,     35,    0.0,    2.3,   0.00,   0.00, 1027.9,    0.1, -999.0
01-03-2023, 00:08:09,     35,    0.0,    2.3,   0.00,   0.00, 1027.9,    0.1, -999.0
01-03-2023, 00:08:19,     35,    0.0,    2.3,   0.00,   0.00, 1027.9,    0.0, -999.0
01-03-2023, 00:08:29,     35,    0.0,    2.3,   0.00,   0.00, 1027.9,    0.0, -999.0
01-03-2023, 00:08:39,     35,    0.0,    2.3,   0.00,   0.00, 1027.9,    0.1, -999.0
01-03-2023, 00:08:49,     35,    0.0,    2.3,   0.00,   0.00, 1027.9,    0.0, -999.0
01-03-2023, 00:08:59,     35,    0.0,    2.3,   0.00,   0.00, 1027.9,    0.2, -999.0
01-03-2023, 00:09:09,     35,    0.0,    2.3,   0.00,   0.00, 1027.9,    0.1, -999.0
01-03-2023, 00:09:19,     35,    0.0,    2.3,   0.00,   0.00, 1027.9,    0.0, -999.0
01-03-2023, 00:09:29,     35,    0.0,    2.2,   0.00,   0.00, 1027.9,    0.0, -999.0
01-03-2023, 00:09:39,     35,    0.0,    2.3,   0.00,   0.00, 1027.9,    0.0, -999.0
01-03-2023, 00:09:49,     35,    0.0,    2.3,   0.00,   0.00, 1027.9,    0.0, -999.0
01-03-2023, 00:09:59,     35,    0.0,    2.4,   0.00,   0.00, 1027.9,    0.1, -999.0
01-03-2023, 00:10:09,     35,    0.0,    2.3,   0.00,   0.00, 1027.9,    0.1, -999.0
01-03-2023, 00:10:19,     35,    0.0,    2.3,   0.00,   0.00, 1028.0,    0.1, -999.0
01-03-2023, 00:10:29,     35,    0.0,    2.3,   0.00,   0.00, 1027.9,    0.1, -999.0
01-03-2023, 00:10:39,     35,    0.0,    2.3,   0.00,   0.00, 1027.9,    0.0, -999.0
01-03-2023, 00:10:49,     35,    0.0,    2.3,   0.00,   0.00, 1027.9,    0.1, -999.0
01-03-2023, 00:10:59,     35,    0.0,    2.3,   0.00,   0.00, 1027.9,    0.1, -999.0
01-03-2023, 00:11:09,     35,    0.0,    2.4,   0.00,   0.00, 1028.0,    0.0, -999.0
01-03-2023, 00:11:19,     35,    0.0,    2.3,   0.00,   0.00, 1027.9,    0.0, -999.0
01-03-2023, 00:11:29,     35,    0.0,    2.3,   0.00,   0.00, 1027.9,    0.0, -999.0
01-03-2023, 00:11:39,     35,    0.0,    2.3,   0.00,   0.00, 1027.9,    0.0, -999.0
01-03-2023, 00:11:49,     35,    0.1,    2.3,   0.00,   0.00, 1027.9,    0.1, -999.0
01-03-2023, 00:11:59,     32,    0.4,    2.4,   0.00,   0.00, 1028.0,    0.1, -999.0
01-03-2023, 00:12:09,     32,    0.0,    2.3,   0.00,   0.00, 1027.9,    0.0, -999.0
01-03-2023, 00:12:19,     19,    0.2,    2.3,   0.00,   0.00, 1028.0,    0.0, -999.0
01-03-2023, 00:12:29,     19,    0.0,    2.3,   0.00,   0.00, 1027.9,    0.0, -999.0
01-03-2023, 00:12:39,     19,    0.0,    2.3,   0.00,   0.00, 1027.9,    0.0, -999.0
01-03-2023, 00:12:49,    354,    0.0,    2.2,   0.00,   0.00, 1027.9,    0.2, -999.0
01-03-2023, 00:12:59,    354,    0.0,    2.3,   0.00,   0.00, 1027.9,    0.0, -999.0
01-03-2023, 00:13:09,    354,    0.0,    2.2,   0.00,   0.00, 1027.9,    0.1, -999.0
01-03-2023, 00:13:19,    354,    0.0,    2.2,   0.00,   0.00, 1027.9,    0.1, -999.0
01-03-2023, 00:13:29,    354,    0.0,    2.2,   0.00,   0.00, 1027.9,    0.0, -999.0
01-03-2023, 00:13:39,    354,    0.0,    2.3,   0.00,   0.00, 1027.9,    0.0, -999.0
01-03-2023, 00:13:49,     35,    0.6,    2.3,   0.00,   0.00, 1028.0,    0.0, -999.0
01-03-2023, 00:13:59,     35,    1.1,    2.3,   0.00,   0.00, 1028.0,    0.1, -999.0
01-03-2023, 00:14:08,     35,    0.2,    2.2,   0.00,   0.00, 1028.0,    0.1, -999.0
01-03-2023, 00:14:19,     34,    0.0,    2.2,   0.00,   0.00, 1027.9,    0.1, -999.0
01-03-2023, 00:14:29,     34,    0.0,    2.2,   0.00,   0.00, 1027.9,    0.0, -999.0
01-03-2023, 00:14:39,     34,    0.0,    2.2,   0.00,   0.00, 1027.9,    0.0, -999.0
01-03-2023, 00:14:48,     34,    0.2,    2.3,   0.00,   0.00, 1028.0,    0.1, -999.0
01-03-2023, 00:14:59,     23,    0.3,    2.2,   0.00,   0.00, 1027.9,    0.0, -999.0
01-03-2023, 00:15:09,     22,    0.3,    2.3,   0.00,   0.00, 1027.9,    0.0, -999.0
01-03-2023, 00:15:19,    358,    0.6,    2.3,   0.00,   0.00, 1028.0,    0.1, -999.0
01-03-2023, 00:15:28,    353,    0.4,    2.3,   0.00,   0.00, 1028.0,    0.1, -999.0
01-03-2023, 00:15:39,    353,    0.1,    2.3,   0.00,   0.00, 1027.9,    0.1, -999.0
01-03-2023, 00:15:49,    353,    0.0,    2.2,   0.00,   0.00, 1027.9,    0.0, -999.0
01-03-2023, 00:15:58,    353,    0.0,    2.3,   0.00,   0.00, 1027.9,    0.1, -999.0
01-03-2023, 00:16:08,    346,    0.0,    2.3,   0.00,   0.00, 1028.0,    0.2, -999.0
01-03-2023, 00:16:19,    346,    0.2,    2.3,   0.00,   0.00, 1027.9,    0.0, -999.0
01-03-2023, 00:16:28,    345,    0.0,    2.2,   0.00,   0.00, 1027.9,    0.0, -999.0
01-03-2023, 00:16:38,    347,    0.0,    2.3,   0.00,   0.00, 1028.0,    0.1, -999.0
01-03-2023, 00:16:48,    357,    0.1,    2.2,   0.00,   0.00, 1028.0,    0.0, -999.0
01-03-2023, 00:16:59,    357,    0.0,    2.2,   0.00,   0.00, 1027.9,    0.1, -999.0
01-03-2023, 00:17:08,    357,    0.0,    2.2,   0.00,   0.00, 1027.9,    0.0, -999.0
01-03-2023, 00:17:18,    357,    0.0,    2.2,   0.00,   0.00, 1027.9,    0.0, -999.0
01-03-2023, 00:17:28,    357,    0.0,    2.2,   0.00,   0.00, 1027.9,    0.1, -999.0
01-03-2023, 00:17:38,    356,    0.0,    2.2,   0.00,   0.00, 1027.9,    0.1, -999.0
01-03-2023, 00:17:48,    357,    0.0,    2.2,   0.00,   0.00, 1027.9,    0.2, -999.0
01-03-2023, 00:17:58,    357,    0.0,    2.3,   0.00,   0.00, 1027.9,    0.2, -999.0
01-03-2023, 00:18:09,    357,    0.0,    2.3,   0.00,   0.00, 1027.9,    0.2, -999.0
01-03-2023, 00:18:18,      0,    0.1,    2.2,   0.00,   0.00, 1027.9,    0.0, -999.0
01-03-2023, 00:18:28,      0,    0.2,    2.4,   0.00,   0.00, 1028.0,    0.1, -999.0
01-03-2023, 00:18:38,      1,    0.0,    2.3,   0.00,   0.00, 1027.8,    0.0, -999.0
01-03-2023, 00:18:48,      4,    0.0,    2.3,   0.00,   0.00, 1027.9,    0.1, -999.0
01-03-2023, 00:18:58,      5,    0.0,    2.3,   0.00,   0.00, 1027.8,    0.0, -999.0
01-03-2023, 00:19:08,      6,    0.0,    2.2,   0.00,   0.00, 1027.9,    0.1, -999.0
01-03-2023, 00:19:18,      3,    0.0,    2.3,   0.00,   0.00, 1027.9,    0.1, -999.0
01-03-2023, 00:19:28,    357,    1.0,    2.3,   0.00,   0.00, 1028.0,    0.0, -999.0
01-03-2023, 00:19:38,    357,    0.0,    2.2,   0.00,   0.00, 1027.8,    0.1, -999.0
01-03-2023, 00:19:48,    357,    0.0,    2.2,   0.00,   0.00, 1027.9,    0.1, -999.0
01-03-2023, 00:19:58,      0,    0.0,    2.2,   0.00,   0.00, 1027.9,    0.1, -999.0
01-03-2023, 00:20:08,      0,    0.1,    2.2,   0.00,   0.00, 1028.0,    0.0, -999.0
01-03-2023, 00:20:18,      0,    0.2,    2.3,   0.00,   0.00, 1027.9,    0.1, -999.0
01-03-2023, 00:20:28,      2,    1.3,    2.3,   0.00,   0.00, 1028.0,    0.1, -999.0
01-03-2023, 00:20:38,    297,    0.4,    2.2,   0.00,   0.00, 1028.0,    0.1, -999.0
01-03-2023, 00:20:48,     61,    1.0,    2.2,   0.00,   0.00, 1028.0,    0.1, -999.0
01-03-2023, 00:20:58,     28,    0.7,    2.2,   0.00,   0.00, 1028.0,    0.1, -999.0
01-03-2023, 00:21:08,      3,    0.7,    2.3,   0.00,   0.00, 1028.0,    0.1, -999.0
01-03-2023, 00:21:18,    355,    1.2,    2.5,   0.00,   0.00, 1028.0,    0.1, -999.0
01-03-2023, 00:21:28,    318,    0.8,    2.3,   0.00,   0.00, 1028.0,    0.2, -999.0
01-03-2023, 00:21:38,    358,    1.1,    2.3,   0.00,   0.00, 1028.0,    0.0, -999.0
01-03-2023, 00:21:48,    358,    0.1,    2.2,   0.00,   0.00, 1027.9,    0.1, -999.0
01-03-2023, 00:21:58,    358,    0.0,    2.2,   0.00,   0.00, 1027.9,    0.0, -999.0
01-03-2023, 00:22:08,    358,    0.0,    2.1,   0.00,   0.00, 1027.8,    0.0, -999.0
01-03-2023, 00:22:18,    325,    0.4,    2.3,   0.00,   0.00, 1027.9,    0.1, -999.0
01-03-2023, 00:22:28,    329,    0.7,    2.4,   0.00,   0.00, 1028.0,    0.1, -999.0
01-03-2023, 00:22:38,     16,    0.0,    2.3,   0.00,   0.00, 1027.9,    0.1, -999.0
01-03-2023, 00:22:48,     16,    0.0,    2.3,   0.00,   0.00, 1027.8,    0.1, -999.0
01-03-2023, 00:22:58,     15,    0.0,    2.3,   0.00,   0.00, 1027.8,    0.1, -999.0
01-03-2023, 00:23:08,    342,    0.4,    2.4,   0.00,   0.00, 1027.9,    0.2, -999.0
01-03-2023, 00:23:18,    346,    0.3,    2.3,   0.00,   0.00, 1027.9,    0.0, -999.0
01-03-2023, 00:23:28,    344,    0.3,    2.2,   0.00,   0.00, 1027.9,    0.1, -999.0
01-03-2023, 00:23:38,      5,    1.9,    2.3,   0.00,   0.00, 1028.0,    0.0, -999.0
01-03-2023, 00:23:48,    358,    1.1,    2.3,   0.00,   0.00, 1028.0,    0.1, -999.0
01-03-2023, 00:23:58,    346,    2.3,    2.3,   0.00,   0.00, 1028.0,    0.2, -999.0
01-03-2023, 00:24:08,     18,    0.5,    2.3,   0.00,   0.00, 1028.0,    0.1, -999.0
01-03-2023, 00:24:18,    324,    0.5,    2.2,   0.00,   0.00, 1027.9,    0.1, -999.0
01-03-2023, 00:24:28,    356,    0.9,    2.3,   0.00,   0.00, 1028.0,    0.0, -999.0
01-03-2023, 00:24:38,      0,    0.7,    2.3,   0.00,   0.00, 1028.0,    0.0, -999.0
01-03-2023, 00:24:48,      0,    0.0,    2.1,   0.00,   0.00, 1027.9,    0.1, -999.0
01-03-2023, 00:24:58,     24,    0.7,    2.3,   0.00,   0.00, 1027.9,    0.0, -999.0
01-03-2023, 00:25:07,     25,    0.0,    2.2,   0.00,   0.00, 1027.8,    0.1, -999.0
01-03-2023, 00:25:18,     25,    0.0,    2.2,   0.00,   0.00, 1027.8,    0.0, -999.0
01-03-2023, 00:25:28,     25,    0.2,    2.2,   0.00,   0.00, 1027.9,    0.0, -999.0
01-03-2023, 00:25:38,     24,    0.0,    2.1,   0.00,   0.00, 1027.9,    0.0, -999.0
01-03-2023, 00:25:48,    353,    0.8,    2.1,   0.00,   0.00, 1027.9,    0.0, -999.0
01-03-2023, 00:25:58,    351,    1.7,    2.3,   0.00,   0.00, 1028.0,    0.1, -999.0
01-03-2023, 00:26:08,    328,    0.7,    2.2,   0.00,   0.00, 1027.9,    0.0, -999.0
01-03-2023, 00:26:17,    329,    0.0,    2.1,   0.00,   0.00, 1027.9,    0.0, -999.0
01-03-2023, 00:26:28,    330,    0.0,    2.1,   0.00,   0.00, 1027.8,    0.0, -999.0
01-03-2023, 00:26:38,      0,    0.3,    2.2,   0.00,   0.00, 1027.9,    0.2, -999.0
01-03-2023, 00:26:47,    348,    0.2,    2.2,   0.00,   0.00, 1027.9,    0.0, -999.0
01-03-2023, 00:26:57,    348,    0.3,    2.2,   0.00,   0.00, 1027.9,    0.0, -999.0
01-03-2023, 00:27:08,     15,    0.3,    2.2,   0.00,   0.00, 1027.9,    0.0, -999.0
01-03-2023, 00:27:18,     11,    1.1,    2.2,   0.00,   0.00, 1028.0,    0.0, -999.0
01-03-2023, 00:27:27,    324,    0.0,    2.1,   0.00,   0.00, 1027.8,    0.1, -999.0
01-03-2023, 00:27:37,    320,    0.4,    2.2,   0.00,   0.00, 1027.9,    0.0, -999.0
01-03-2023, 00:27:48,    324,    0.5,    2.2,   0.00,   0.00, 1027.9,    0.1, -999.0
01-03-2023, 00:27:57,      8,    0.4,    2.1,   0.00,   0.00, 1027.9,    0.0, -999.0
01-03-2023, 00:28:07,      8,    0.0,    2.1,   0.00,   0.00, 1027.8,    0.1, -999.0
01-03-2023, 00:28:17,      8,    0.0,    2.1,   0.00,   0.00, 1027.9,    0.0, -999.0
01-03-2023, 00:28:28,    352,    0.0,    2.2,   0.00,   0.00, 1027.8,    0.0, -999.0
01-03-2023, 00:28:37,    352,    0.1,    2.2,   0.00,   0.00, 1027.9,    0.0, -999.0
01-03-2023, 00:28:47,    351,    0.1,    2.2,   0.00,   0.00, 1027.9,    0.0, -999.0
01-03-2023, 00:28:58,    357,    0.5,    2.2,   0.00,   0.00, 1027.9,    0.1, -999.0
01-03-2023, 00:29:07,    356,    0.2,    2.2,   0.00,   0.00, 1027.9,    0.1, -999.0
01-03-2023, 00:29:17,    350,    0.8,    2.2,   0.00,   0.00, 1027.9,    0.1, -999.0
01-03-2023, 00:29:27,    351,    1.2,    2.2,   0.00,   0.00, 1028.0,    0.0, -999.0
01-03-2023, 00:29:37,    350,    0.2,    2.2,   0.00,   0.00, 1027.9,    0.1, -999.0
01-03-2023, 00:29:47,    331,    0.4,    2.2,   0.00,   0.00, 1027.9,    0.0, -999.0
01-03-2023, 00:29:57,    329,    0.8,    2.2,   0.00,   0.00, 1028.0,    0.1, -999.0
01-03-2023, 00:30:07,    331,    0.3,    2.1,   0.00,   0.00, 1027.9,    0.0, -999.0
01-03-2023, 00:30:17,    358,    0.4,    2.3,   0.00,   0.00, 1027.9,    0.1, -999.0
01-03-2023, 00:30:27,    357,    1.1,    2.2,   0.00,   0.00, 1028.0,    0.2, -999.0
01-03-2023, 00:30:37,    358,    0.3,    2.3,   0.00,   0.00, 1027.9,    0.2, -999.0
01-03-2023, 00:30:47,    353,    0.4,    2.2,   0.00,   0.00, 1027.9,    0.0, -999.0
01-03-2023, 00:30:57,      8,    1.5,    2.3,   0.00,   0.00, 1027.9,    0.1, -999.0
01-03-2023, 00:31:07,      0,    0.4,    2.2,   0.00,   0.00, 1028.0,    0.2, -999.0
01-03-2023, 00:31:17,    342,    0.5,    2.2,   0.00,   0.00, 1027.9,    0.1, -999.0
01-03-2023, 00:31:27,      5,    0.7,    2.2,   0.00,   0.00, 1027.9,    0.1, -999.0
01-03-2023, 00:31:37,    349,    0.0,    2.2,   0.00,   0.00, 1027.8,    0.0, -999.0
01-03-2023, 00:31:47,    341,    0.4,    2.2,   0.00,   0.00, 1027.9,    0.0, -999.0
01-03-2023, 00:31:57,      2,    2.1,    2.1,   0.00,   0.00, 1028.0,    0.1, -999.0
01-03-2023, 00:32:07,    346,    1.3,    2.3,   0.00,   0.00, 1028.0,    0.0, -999.0
01-03-2023, 00:32:17,    314,    0.5,    2.2,   0.00,   0.00, 1027.9,    0.1, -999.0
01-03-2023, 00:32:27,      0,    2.2,    2.2,   0.00,   0.00, 1028.0,    0.0, -999.0
01-03-2023, 00:32:37,    358,    1.4,    2.2,   0.00,   0.00, 1028.0,    0.1, -999.0
01-03-2023, 00:32:47,      8,    0.9,    2.3,   0.00,   0.00, 1027.9,    0.2, -999.0
01-03-2023, 00:32:57,    320,    0.7,    2.2,   0.00,   0.00, 1027.9,    0.0, -999.0
01-03-2023, 00:33:07,    304,    0.9,    2.2,   0.00,   0.00, 1028.0,    0.0, -999.0
01-03-2023, 00:33:17,    304,    0.0,    2.1,   0.00,   0.00, 1027.8,    0.0, -999.0
01-03-2023, 00:33:27,    304,    0.0,    2.1,   0.00,   0.00, 1027.8,    0.0, -999.0
01-03-2023, 00:33:37,    308,    0.5,    2.2,   0.00,   0.00, 1027.9,    0.1, -999.0
01-03-2023, 00:33:47,      0,    0.7,    2.2,   0.00,   0.00, 1028.0,    0.1, -999.0
01-03-2023, 00:33:57,    351,    0.4,    2.2,   0.00,   0.00, 1028.0,    0.0, -999.0
01-03-2023, 00:34:07,    350,    0.0,    2.1,   0.00,   0.00, 1027.8,    0.0, -999.0
01-03-2023, 00:34:17,    357,    0.7,    2.2,   0.00,   0.00, 1027.9,    0.1, -999.0
01-03-2023, 00:34:27,    344,    1.1,    2.2,   0.00,   0.00, 1028.0,    0.1, -999.0
01-03-2023, 00:34:37,    358,    1.9,    2.2,   0.00,   0.00, 1028.0,    0.1, -999.0
01-03-2023, 00:34:47,     20,    0.4,    2.2,   0.00,   0.00, 1027.9,    0.1, -999.0
01-03-2023, 00:34:57,    342,    1.9,    2.3,   0.00,   0.00, 1028.0,    0.1, -999.0
01-03-2023, 00:35:07,      1,    0.5,    2.2,   0.00,   0.00, 1028.0,    0.0, -999.0
01-03-2023, 00:35:17,      1,    0.0,    2.1,   0.00,   0.00, 1027.8,    0.1, -999.0
01-03-2023, 00:35:27,      1,    0.0,    2.1,   0.00,   0.00, 1027.8,    0.1, -999.0
01-03-2023, 00:35:37,      0,    0.0,    2.1,   0.00,   0.00, 1027.8,    0.1, -999.0
01-03-2023, 00:35:46,    358,    0.0,    2.1,   0.00,   0.00, 1027.9,    0.1, -999.0
01-03-2023, 00:35:57,      7,    0.2,    2.3,   0.00,   0.00, 1027.9,    0.1, -999.0
01-03-2023, 00:36:07,    332,    0.2,    2.1,   0.00,   0.00, 1027.9,    0.0, -999.0
01-03-2023, 00:36:17,    331,    0.1,    2.2,   0.00,   0.00, 1027.9,    0.0, -999.0
01-03-2023, 00:36:26,     52,    0.3,    2.1,   0.00,   0.00, 1027.9,    0.1, -999.0
01-03-2023, 00:36:37,     39,    0.1,    2.2,   0.00,   0.00, 1027.9,    0.0, -999.0
01-03-2023, 00:36:47,     39,    0.0,    2.1,   0.00,   0.00, 1027.9,    0.0, -999.0
01-03-2023, 00:36:56,     36,    0.1,    2.1,   0.00,   0.00, 1027.9,    0.0, -999.0
01-03-2023, 00:37:07,     36,    0.2,    2.2,   0.00,   0.00, 1027.9,    0.0, -999.0
01-03-2023, 00:37:17,     36,    0.4,    2.1,   0.00,   0.00, 1027.9,    0.0, -999.0
01-03-2023, 00:37:27,     36,    0.1,    2.1,   0.00,   0.00, 1027.9,    0.1, -999.0
01-03-2023, 00:37:36,     36,    0.2,    2.2,   0.00,   0.00, 1028.0,    0.1, -999.0
01-03-2023, 00:37:47,     36,    0.0,    2.2,   0.00,   0.00, 1027.8,    0.0, -999.0
01-03-2023, 00:37:57,      0,    1.4,    2.2,   0.00,   0.00, 1027.9,    0.0, -999.0
01-03-2023, 00:38:06,      0,    1.4,    2.2,   0.00,   0.00, 1028.0,    0.0, -999.0
01-03-2023, 00:38:16,      0,    0.0,    2.1,   0.00,   0.00, 1027.8,    0.0, -999.0
01-03-2023, 00:38:27,      0,    0.1,    2.2,   0.00,   0.00, 1027.9,    0.1, -999.0
01-03-2023, 00:38:36,     13,    0.6,    2.2,   0.00,   0.00, 1027.9,    0.1, -999.0
01-03-2023, 00:38:46,     21,    0.0,    2.2,   0.00,   0.00, 1027.9,    0.1, -999.0
01-03-2023, 00:38:56,    326,    1.1,    2.1,   0.00,   0.00, 1028.0,    0.1, -999.0
01-03-2023, 00:39:07,    330,    0.3,    2.1,   0.00,   0.00, 1027.9,    0.0, -999.0
01-03-2023, 00:39:16,    330,    0.3,    2.2,   0.00,   0.00, 1028.0,    0.1, -999.0
01-03-2023, 00:39:26,    331,    0.0,    2.2,   0.00,   0.00, 1027.8,    0.1, -999.0
01-03-2023, 00:39:37,      0,    1.6,    2.2,   0.00,   0.00, 1028.0,    0.1, -999.0
01-03-2023, 00:39:46,      0,    0.0,    2.1,   0.00,   0.00, 1027.9,    0.1, -999.0
01-03-2023, 00:39:56,      0,    0.0,    2.2,   0.00,   0.00, 1027.8,    0.2, -999.0
01-03-2023, 00:40:06,      0,    0.0,    2.1,   0.00,   0.00, 1027.8,    0.0, -999.0
01-03-2023, 00:40:17,      0,    0.0,    2.1,   0.00,   0.00, 1027.9,    0.1, -999.0
01-03-2023, 00:40:26,      0,    0.0,    2.1,   0.00,   0.00, 1027.8,    0.0, -999.0
01-03-2023, 00:40:36,      4,    0.5,    2.1,   0.00,   0.00, 1027.9,    0.0, -999.0
01-03-2023, 00:40:46,     19,    1.5,    2.2,   0.00,   0.00, 1028.0,    0.1, -999.0
01-03-2023, 00:40:56,      0,    0.7,    2.2,   0.00,   0.00, 1027.9,    0.0, -999.0
01-03-2023, 00:41:06,    349,    0.6,    2.1,   0.00,   0.00, 1028.0,    0.0, -999.0
01-03-2023, 00:41:16,      1,    1.3,    2.2,   0.00,   0.00, 1027.9,    0.1, -999.0
01-03-2023, 00:41:26,     17,    0.4,    2.1,   0.00,   0.00, 1027.9,    0.0, -999.0
01-03-2023, 00:41:36,     18,    0.1,    2.1,   0.00,   0.00, 1027.8,    0.1, -999.0
01-03-2023, 00:41:46,     16,    0.2,    2.1,   0.00,   0.00, 1027.9,    0.0, -999.0
01-03-2023, 00:41:56,     14,    0.0,    2.1,   0.00,   0.00, 1027.8,    0.1, -999.0
01-03-2023, 00:42:06,     14,    0.0,    2.1,   0.00,   0.00, 1027.8,    0.0, -999.0
01-03-2023, 00:42:16,    358,    0.3,    2.1,   0.00,   0.00, 1027.9,    0.0, -999.0
01-03-2023, 00:42:26,    358,    0.1,    2.1,   0.00,   0.00, 1027.8,    0.0, -999.0
01-03-2023, 00:42:36,    358,    0.0,    2.0,   0.00,   0.00, 1027.8,    0.1, -999.0
01-03-2023, 00:42:46,    359,    0.0,    2.1,   0.00,   0.00, 1027.8,    0.2, -999.0
01-03-2023, 00:42:56,    358,    0.0,    2.1,   0.00,   0.00, 1027.8,    0.0, -999.0
01-03-2023, 00:43:06,    358,    0.0,    2.1,   0.00,   0.00, 1027.8,    0.0, -999.0
01-03-2023, 00:43:16,    358,    0.0,    2.0,   0.00,   0.00, 1027.8,    0.1, -999.0
01-03-2023, 00:43:26,    358,    0.0,    2.0,   0.00,   0.00, 1027.8,    0.0, -999.0
01-03-2023, 00:43:36,    358,    0.0,    2.1,   0.00,   0.00, 1027.8,    0.0, -999.0
01-03-2023, 00:43:46,     45,    0.5,    2.2,   0.00,   0.00, 1028.0,    0.0, -999.0
01-03-2023, 00:43:56,     45,    0.4,    2.3,   0.00,   0.00, 1028.0,    0.1, -999.0
01-03-2023, 00:44:06,     44,    0.0,    2.2,   0.00,   0.00, 1027.9,    0.2, -999.0
01-03-2023, 00:44:16,     45,    0.2,    2.2,   0.00,   0.00, 1027.9,    0.0, -999.0
01-03-2023, 00:44:26,     44,    0.0,    2.1,   0.00,   0.00, 1027.9,    0.1, -999.0
01-03-2023, 00:44:36,     44,    0.0,    2.1,   0.00,   0.00, 1027.9,    0.0, -999.0
01-03-2023, 00:44:46,     44,    0.0,    2.1,   0.00,   0.00, 1027.9,    0.0, -999.0
01-03-2023, 00:44:56,     44,    0.2,    2.2,   0.00,   0.00, 1027.9,    0.1, -999.0
01-03-2023, 00:45:06,     44,    0.0,    2.1,   0.00,   0.00, 1027.8,    0.0, -999.0
01-03-2023, 00:45:16,     44,    0.0,    2.1,   0.00,   0.00, 1027.8,    0.0, -999.0
01-03-2023, 00:45:26,     44,    0.2,    2.1,   0.00,   0.00, 1027.9,    0.0, -999.0
01-03-2023, 00:45:36,     44,    0.0,    2.1,   0.00,   0.00, 1027.8,    0.1, -999.0
01-03-2023, 00:45:46,    327,    0.6,    2.2,   0.00,   0.00, 1027.9,    0.0, -999.0
01-03-2023, 00:45:56,    324,    0.2,    2.1,   0.00,   0.00, 1027.9,    0.0, -999.0
01-03-2023, 00:46:06,    323,    0.0,    2.0,   0.00,   0.00, 1027.8,    0.0, -999.0
01-03-2023, 00:46:16,    323,    0.0,    2.0,   0.00,   0.00, 1027.8,    0.1, -999.0
01-03-2023, 00:46:26,    331,    0.2,    2.0,   0.00,   0.00, 1027.9,    0.0, -999.0
01-03-2023, 00:46:35,    334,    0.1,    2.1,   0.00,   0.00, 1027.9,    0.0, -999.0
01-03-2023, 00:46:46,    333,    0.0,    2.1,   0.00,   0.00, 1027.8,    0.1, -999.0